Tracking 29892 objects as of 21-Nov-2024
HD Live streaming from Space Station
objects crossing your sky now

STARLINK-4308

Track STARLINK-4308 now!
10-day predictions
STARLINK-4308 is classified as:


NORAD ID: 53061
Int'l Code: 2022-077U
Perigee: 568.3 km
Apogee: 572.0 km
Inclination: 97.7 °
Period: 95.9 minutes
Semi major axis: 6941 km
RCS: Unknown
Launch date: July 11, 2022
Source: United States (US)
Launch site: AIR FORCE WESTERN TEST RANGE (AFWTR)
Your satellite tracking list
Your tracking list is empty




NASA's NSSDC Master Catalog

Two Line Element Set (TLE):
1 53061U 22077U   24325.44823785 -.00001117  00000-0 -82375-4 0  9991
2 53061  97.6569 144.0619 0002681  75.8011 284.3511 15.01248534129765
Source of the keplerian elements: AFSPC